EW2693 Rimini IT current weather conditions

sailwx.info

Wind from 276 at 2 knots gusting 6

Air temperature 4.4° C
Dewpoint 2.0° C

Last reported at 2019-Dec-05 21:05 UTC.
Time now 2019-Dec-05 21:44 UTC

Location: N 44°03' E 012°34'.
View on Google Maps.

See reports from other nearby stations

  
Tides and Currents Weather Stations Pressure Air Temp Water Temp Dewpoint Dewpoint Depression Visibility Wind Speed Wind Dir Waves Ship Positions
date/time (UTC)wind fromknots sea level pressurealtimeterstation pressurevisibilityair tempwater tempwave heightnotes
2019-Dec-05 21:05 276 2 gusting 6 4.4
2019-Dec-05 21:00 251 2 gusting 6 4.4
2019-Dec-05 20:55 273 4 gusting 6 4.4
2019-Dec-05 20:50 273 4 gusting 6 4.4
2019-Dec-05 20:41 271 3 gusting 6 5.0
2019-Dec-05 20:36 280 4 gusting 6 5.0
2019-Dec-05 20:31 281 2 gusting 6 5.0
2019-Dec-05 20:26 277 1 gusting 6 5.0
2019-Dec-05 20:21 286 1 gusting 6 5.0
2019-Dec-05 20:16 273 2 gusting 5 5.0
2019-Dec-05 20:10 281 0 gusting 6 5.0
2019-Dec-05 20:05 277 3 gusting 6 5.0
2019-Dec-05 20:02 263 3 gusting 5 5.0
2019-Dec-05 19:55 275 2 gusting 5 5.0
2019-Dec-05 19:51 269 3 gusting 5 5.0
2019-Dec-05 19:47 279 1 gusting 6 5.0
2019-Dec-05 19:41 274 2 gusting 6 5.0
2019-Dec-05 19:35 271 2 gusting 6 5.0
2019-Dec-05 19:32 265 3 gusting 6 5.0
2019-Dec-05 19:25 263 2 gusting 6 5.0
2019-Dec-05 19:21 298 3 gusting 6 5.0
2019-Dec-05 19:16 305 2 gusting 6 5.0
2019-Dec-05 19:11 266 2 gusting 6 5.0
2019-Dec-05 19:06 290 2 gusting 6 5.0
2019-Dec-05 19:02 277 2 gusting 6 5.0
2019-Dec-05 18:55 283 4 gusting 6 5.0
2019-Dec-05 18:50 273 3 gusting 6 5.0
2019-Dec-05 18:47 286 3 gusting 6 5.0
2019-Dec-05 18:41 285 3 gusting 6 5.0
2019-Dec-05 18:35 264 3 gusting 6 5.0
2019-Dec-05 18:31 277 3 gusting 5 5.0
2019-Dec-05 18:25 257 2 gusting 6 5.0
2019-Dec-05 18:20 286 2 gusting 6 5.0
2019-Dec-05 18:16 277 3 gusting 6 5.0
2019-Dec-05 18:11 298 2 gusting 6 5.0
2019-Dec-05 18:05 272 2 gusting 4 5.0
2019-Dec-05 18:01 273 1 gusting 6 5.6
2019-Dec-05 17:55 274 3 gusting 6 5.6
2019-Dec-05 17:50 274 1 gusting 6 5.6
2019-Dec-05 17:46 281 1 gusting 6 5.6
2019-Dec-05 17:41 303 3 gusting 6 5.6
2019-Dec-05 17:35 265 2 gusting 6 5.6
2019-Dec-05 17:31 282 2 gusting 6 6.1
2019-Dec-05 17:25 290 2 gusting 4 6.1
2019-Dec-05 17:20 290 1 gusting 4 6.1
2019-Dec-05 17:16 285 1 gusting 4 6.1
2019-Dec-05 17:10 292 2 gusting 4 6.1
2019-Dec-05 17:05 286 1 gusting 2 6.1
2019-Dec-05 17:01 289 0 gusting 3 6.1
2019-Dec-05 16:55 290 1 gusting 5 6.7
2019-Dec-05 16:50 289 2 gusting 5 6.7
2019-Dec-05 16:46 286 1 gusting 3 6.7
2019-Dec-05 16:40 287 1 gusting 3 6.7
2019-Dec-05 16:35 290 6.7
2019-Dec-05 16:32 286 6.7
2019-Dec-05 16:25 293 6.7
2019-Dec-05 16:20 300 6.7
2019-Dec-05 16:16 300 7.2
2019-Dec-05 16:10 301 7.2
2019-Dec-05 16:05 301 7.2
2019-Dec-05 16:01 301 7.2
2019-Dec-05 15:55 301 7.2
2019-Dec-05 15:50 305 7.2
2019-Dec-05 15:47 300 7.2
2019-Dec-05 15:40 311 1 gusting 4 7.2
2019-Dec-05 15:35 308 1 gusting 6 7.2
2019-Dec-05 15:32 304 2 gusting 6 7.2
2019-Dec-05 15:25 292 2 gusting 6 7.2
2019-Dec-05 15:20 281 3 gusting 5 7.8
2019-Dec-05 15:16 304 2 gusting 6 7.8
2019-Dec-05 15:10 295 3 gusting 6 7.8
2019-Dec-05 15:05 320 2 gusting 6 7.8
2019-Dec-05 15:02 291 3 gusting 6 7.8
2019-Dec-05 14:55 289 4 gusting 6 7.8
2019-Dec-05 14:50 304 2 gusting 6 7.8
2019-Dec-05 14:47 265 4 gusting 6 8.3
2019-Dec-05 14:40 294 3 gusting 6 8.3
2019-Dec-05 14:35 301 2 gusting 6 8.3
2019-Dec-05 14:31 269 4 gusting 6 8.3
2019-Dec-05 14:25 286 2 gusting 6 8.3
2019-Dec-05 14:20 304 3 gusting 6 8.3
2019-Dec-05 14:17 286 3 gusting 6 8.3
2019-Dec-05 14:10 296 4 gusting 7 8.3
2019-Dec-05 14:05 336 4 gusting 8 8.3
2019-Dec-05 14:01 301 4 gusting 8 8.3
2019-Dec-05 13:55 310 4 gusting 6 8.3
2019-Dec-05 13:50 304 3 gusting 7 8.3
2019-Dec-05 13:47 293 4 gusting 7 8.3
2019-Dec-05 13:40 286 3 gusting 7 8.3
2019-Dec-05 13:35 286 4 gusting 9 8.3
2019-Dec-05 13:31 311 5 gusting 9 8.3
2019-Dec-05 13:25 305 6 gusting 9 8.3
2019-Dec-05 13:20 304 3 gusting 8 8.3
2019-Dec-05 13:17 333 5 gusting 8 8.3
2019-Dec-05 13:10 286 2 gusting 9 8.3
2019-Dec-05 13:05 301 6 gusting 9 8.3
2019-Dec-05 13:01 327 4 gusting 8 8.3
2019-Dec-05 12:55 320 6 gusting 8 8.3
2019-Dec-05 12:50 276 4 gusting 7 8.3
2019-Dec-05 12:47 294 4 gusting 9 8.3
2019-Dec-05 12:40 301 4 gusting 9 8.3
2019-Dec-05 12:35 306 6 gusting 9 8.3
2019-Dec-05 12:30 328 5 gusting 10 8.3
2019-Dec-05 12:25 277 6 gusting 10 8.3
2019-Dec-05 12:20 322 6 gusting 10 7.8
2019-Dec-05 12:16 315 5 gusting 9 7.8
2019-Dec-05 12:10 299 5 gusting 10 7.8
2019-Dec-05 12:05 275 5 gusting 10 8.3
2019-Dec-05 12:00 336 4 gusting 10 8.3
2019-Dec-05 11:55 355 6 gusting 10 8.3
2019-Dec-05 11:50 281 3 gusting 9 7.8
2019-Dec-05 11:46 309 6 gusting 10 7.8
2019-Dec-05 11:40 291 6 gusting 10 7.8
2019-Dec-05 11:35 345 3 gusting 8 7.8
2019-Dec-05 11:32 293 6 gusting 9 7.8
2019-Dec-05 11:25 317 6 gusting 8 7.8
2019-Dec-05 11:20 310 4 gusting 10 7.8
2019-Dec-05 11:15 333 6 gusting 11 7.2
2019-Dec-05 11:10 333 6 gusting 11 7.2
2019-Dec-05 11:05 286 6 gusting 11 7.2
2019-Dec-05 11:00 300 7 gusting 11 7.2
2019-Dec-05 10:55 311 7 gusting 11 7.2
2019-Dec-05 10:50 344 4 gusting 10 7.2
2019-Dec-05 10:45 327 6 gusting 10 7.2
2019-Dec-05 10:40 325 5 gusting 12 7.2
2019-Dec-05 10:35 327 6 gusting 12 7.2
2019-Dec-05 10:30 318 6 gusting 9 7.2
2019-Dec-05 10:25 298 5 gusting 9 7.2
2019-Dec-05 10:20 324 5 gusting 9 6.7
2019-Dec-05 10:15 260 4 gusting 9 6.7
2019-Dec-05 10:10 322 6 gusting 10 6.7
2019-Dec-05 10:05 317 6 gusting 10 6.1
2019-Dec-05 10:00 331 5 gusting 9 6.1
2019-Dec-05 09:55 298 6 gusting 10 6.1
2019-Dec-05 09:50 307 5 gusting 10 6.1
2019-Dec-05 09:45 286 7 gusting 11 6.1
2019-Dec-05 09:40 283 6 gusting 11 6.1
2019-Dec-05 09:35 296 7 gusting 11 6.1
2019-Dec-05 09:30 298 5 gusting 9 6.1
2019-Dec-05 09:25 282 4 gusting 9 5.6
2019-Dec-05 09:20 283 6 gusting 9 5.6
2019-Dec-05 09:15 313 6 gusting 9 5.6
2019-Dec-05 09:10 303 6 gusting 9 5.6
2019-Dec-05 09:05 298 4 gusting 8 5.6
2019-Dec-05 09:00 287 6 gusting 8 5.6
2019-Dec-05 08:55 287 1 gusting 8 5.6
2019-Dec-05 08:50 309 6 gusting 9 5.0
2019-Dec-05 08:40 285 5 gusting 9 5.0
2019-Dec-05 08:35 292 5 gusting 9 5.0
2019-Dec-05 08:30 275 5 gusting 8 5.0
2019-Dec-05 08:25 255 5 gusting 8 5.0
2019-Dec-05 08:20 305 2 gusting 6 5.0
2019-Dec-05 08:10 285 4 gusting 6 4.4
2019-Dec-05 08:05 300 4 gusting 6 4.4
2019-Dec-05 08:00 281 3 gusting 6 4.4
2019-Dec-05 07:55 309 2 gusting 6 4.4
2019-Dec-05 07:50 297 1 gusting 6 4.4
2019-Dec-05 07:45 259 2 gusting 6 4.4
2019-Dec-05 07:40 275 3 gusting 6 4.4
2019-Dec-05 07:35 292 4 gusting 6 4.4
2019-Dec-05 07:25 305 3 gusting 5 4.4
2019-Dec-05 07:20 274 2 gusting 6 4.4
2019-Dec-05 07:11 277 4 gusting 7 4.4
2019-Dec-05 07:06 290 2 gusting 7 4.4
2019-Dec-05 07:02 307 4 gusting 7 4.4
2019-Dec-05 06:56 317 3 gusting 6 4.4
2019-Dec-05 06:51 290 4 gusting 6 4.4
2019-Dec-05 06:47 302 4 gusting 6 4.4
2019-Dec-05 06:40 300 3 gusting 6 4.4
2019-Dec-05 06:35 288 3 gusting 6 4.4
2019-Dec-05 06:32 286 2 gusting 7 5.0
2019-Dec-05 06:26 286 5 gusting 7 5.0
2019-Dec-05 06:20 317 2 gusting 6 5.0
2019-Dec-05 06:17 281 2 gusting 6 4.4
2019-Dec-05 06:10 297 1 gusting 5 4.4
2019-Dec-05 06:05 287 3 gusting 6 4.4
2019-Dec-05 06:01 297 4 gusting 7 4.4
2019-Dec-05 05:55 299 5 gusting 7 4.4
2019-Dec-05 05:50 281 3 gusting 6 4.4
2019-Dec-05 05:47 264 3 gusting 7 4.4
2019-Dec-05 05:40 279 4 gusting 9 4.4
2019-Dec-05 05:35 296 4 gusting 6 4.4
2019-Dec-05 05:32 302 3 gusting 6 4.4
2019-Dec-05 05:25 275 4 gusting 7 4.4
2019-Dec-05 05:20 284 4 gusting 7 5.0
2019-Dec-05 05:16 295 2 gusting 6 5.0
2019-Dec-05 05:10 297 4 gusting 8 5.0
2019-Dec-05 05:05 295 4 gusting 8 5.0
2019-Dec-05 05:01 292 3 gusting 7 5.0
2019-Dec-05 04:55 301 2 gusting 7 5.0
2019-Dec-05 04:46 289 4 gusting 7 5.0
2019-Dec-05 04:40 275 4 gusting 7 5.0
2019-Dec-05 04:35 300 2 gusting 7 5.0
2019-Dec-05 04:32 277 3 gusting 7 5.0
2019-Dec-05 04:25 306 4 gusting 7 5.0
2019-Dec-05 04:20 289 4 gusting 7 5.0
2019-Dec-05 04:16 298 4 gusting 7 5.0
2019-Dec-05 04:10 305 3 gusting 6 5.0
2019-Dec-05 04:05 302 5 gusting 6 5.0
2019-Dec-05 04:01 279 2 gusting 5 5.0
2019-Dec-05 03:55 287 2 gusting 5 5.0
2019-Dec-05 03:50 305 2 gusting 5 5.0
2019-Dec-05 03:46 295 3 gusting 5 5.0
2019-Dec-05 03:40 309 2 gusting 4 5.0
2019-Dec-05 03:35 306 2 gusting 4 5.0
2019-Dec-05 03:31 292 2 gusting 6 5.0
2019-Dec-05 03:25 308 3 gusting 6 5.0
2019-Dec-05 03:20 296 2 gusting 6 5.0
2019-Dec-05 03:16 275 3 gusting 6 5.0
2019-Dec-05 03:10 286 2 gusting 6 5.0
2019-Dec-05 03:05 284 3 gusting 6 5.0
2019-Dec-05 03:01 265 2 gusting 7 5.0
2019-Dec-05 02:55 303 5 gusting 7 5.0
2019-Dec-05 02:50 294 2 gusting 6 5.0
2019-Dec-05 02:47 313 3 gusting 6 5.0
2019-Dec-05 02:40 280 2 gusting 6 4.4
2019-Dec-05 02:35 268 2 gusting 6 4.4
2019-Dec-05 02:31 254 3 gusting 6 4.4
2019-Dec-05 02:25 279 3 gusting 6 4.4
2019-Dec-05 02:20 267 2 gusting 6 4.4
2019-Dec-05 02:16 292 2 gusting 5 4.4
2019-Dec-05 02:10 276 1 gusting 6 4.4
2019-Dec-05 02:05 273 2 gusting 6 4.4
2019-Dec-05 02:01 280 3 gusting 6 4.4
2019-Dec-05 01:55 287 2 gusting 4 4.4
2019-Dec-05 01:50 292 1 gusting 4 4.4
2019-Dec-05 01:46 273 1 gusting 6 4.4
2019-Dec-05 01:40 255 1 gusting 6 4.4
2019-Dec-05 01:35 264 1 gusting 6 4.4
2019-Dec-05 01:31 277 3 gusting 6 4.4
2019-Dec-05 01:25 267 1 gusting 6 4.4
2019-Dec-05 01:20 286 2 gusting 3 4.4
2019-Dec-05 01:16 282 1 gusting 6 4.4
2019-Dec-05 01:10 290 1 gusting 6 4.4
2019-Dec-05 01:05 274 1 gusting 4 4.4
2019-Dec-05 01:01 290 2 gusting 4 4.4
2019-Dec-05 00:55 286 1 gusting 4 4.4
2019-Dec-05 00:50 284 1 gusting 5 4.4
2019-Dec-05 00:46 290 1 gusting 6 4.4
2019-Dec-05 00:40 282 1 gusting 6 4.4
2019-Dec-05 00:35 280 2 gusting 5 4.4
2019-Dec-05 00:30 261 3 gusting 5 4.4
2019-Dec-05 00:25 281 2 gusting 6 4.4
2019-Dec-05 00:20 266 4 gusting 6 4.4
2019-Dec-05 00:15 284 3 gusting 6 4.4
2019-Dec-05 00:10 261 4 gusting 6 4.4
2019-Dec-05 00:05 265 3 gusting 6 4.4
2019-Dec-05 00:01 276 3 gusting 6 4.4
2019-Dec-04 23:55 275 3 gusting 6 4.4
2019-Dec-04 23:50 282 2 gusting 6 4.4
2019-Dec-04 23:45 273 3 gusting 6 4.4
2019-Dec-04 23:40 286 2 gusting 5 4.4
2019-Dec-04 23:35 279 2 gusting 5 4.4
2019-Dec-04 23:31 283 1 gusting 6 4.4
2019-Dec-04 23:25 275 3 gusting 6 4.4
2019-Dec-04 23:20 269 2 gusting 6 4.4
2019-Dec-04 23:15 277 3 gusting 6 4.4
2019-Dec-04 23:10 265 2 gusting 6 4.4
2019-Dec-04 23:05 279 2 gusting 6 5.0
2019-Dec-04 23:01 281 3 gusting 6 5.0
2019-Dec-04 22:55 271 2 gusting 6 5.0
2019-Dec-04 22:50 283 2 gusting 6 5.0
2019-Dec-04 22:46 284 2 gusting 6 5.0
2019-Dec-04 22:40 269 3 gusting 6 5.0
2019-Dec-04 22:35 266 2 gusting 5 5.0
2019-Dec-04 22:31 279 2 gusting 4 5.0
2019-Dec-04 22:25 288 1 gusting 4 5.0
2019-Dec-04 22:20 288 2 gusting 5 5.0
2019-Dec-04 22:15 284 2 gusting 5 5.0
2019-Dec-04 22:10 290 2 gusting 6 5.0
2019-Dec-04 22:05 266 4 gusting 7 5.0
2019-Dec-04 22:00 273 3 gusting 7 5.0
2019-Dec-04 21:55 271 3 gusting 7 5.0
2019-Dec-04 21:50 279 4 gusting 8 5.0
2019-Dec-04 21:45 284 4 gusting 8 5.0
2019-Dec-04 21:40 286 3 gusting 6 5.0
2019-Dec-04 21:35 263 4 gusting 8 5.0
2019-Dec-04 21:30 260 4 gusting 8 5.0
2019-Dec-04 21:25 277 5 gusting 7 5.0
2019-Dec-04 21:20 267 2 gusting 6 5.0
2019-Dec-04 21:15 272 2 gusting 6 5.0
2019-Dec-04 21:10 277 4 gusting 7 5.0
2019-Dec-04 21:05 306 4 gusting 7 5.0
2019-Dec-04 21:00 289 2 gusting 6 5.0
2019-Dec-04 20:55 284 2 gusting 6 5.0
2019-Dec-04 20:50 275 2 gusting 7 5.0
2019-Dec-04 20:45 254 2 gusting 7 5.0
2019-Dec-04 20:40 279 4 gusting 7 5.0
2019-Dec-04 20:35 266 4 gusting 6 5.0
2019-Dec-04 20:30 261 2 gusting 6 5.0
2019-Dec-04 20:25 289 3 gusting 6 5.6
2019-Dec-04 20:20 277 3 gusting 7 5.6
2019-Dec-04 20:15 270 4 gusting 7 5.6
2019-Dec-04 20:10 288 4 gusting 9 5.6
2019-Dec-04 20:05 281 5 gusting 9 5.6
2019-Dec-04 20:00 283 4 gusting 8 5.6
2019-Dec-04 19:55 305 5 gusting 9 5.6
2019-Dec-04 19:50 296 6 gusting 10 5.6
2019-Dec-04 19:45 296 4 gusting 10 5.6
2019-Dec-04 19:40 279 5 gusting 10 5.6
2019-Dec-04 19:35 302 6 gusting 10 6.1
2019-Dec-04 19:25 303 6 gusting 10 6.1
2019-Dec-04 19:20 285 6 gusting 11 6.1
2019-Dec-04 19:10 285 7 gusting 12 6.1
2019-Dec-04 19:05 291 6 gusting 10 6.1
2019-Dec-04 18:55 285 6 gusting 10 6.1
2019-Dec-04 18:46 286 6 gusting 9 6.7
2019-Dec-04 18:40 301 6 gusting 9 6.7
2019-Dec-04 18:31 300 6 gusting 12 6.7
2019-Dec-04 18:25 282 8 gusting 12 6.7
2019-Dec-04 18:20 303 6 gusting 11 6.7
2019-Dec-04 18:10 280 7 gusting 12 7.2
2019-Dec-04 18:05 279 7 gusting 14 7.2
2019-Dec-04 17:55 292 6 gusting 12 7.2
2019-Dec-04 17:45 322 6 gusting 9 7.2
2019-Dec-04 17:40 231 3 gusting 8 7.2
2019-Dec-04 17:35 286 6 gusting 8 7.2
2019-Dec-04 17:25 298 6 gusting 9 7.2
2019-Dec-04 17:20 288 6 gusting 9 7.8
2019-Dec-04 17:10 290 5 gusting 8 7.8
2019-Dec-04 17:00 315 5 gusting 9 7.8
2019-Dec-04 16:55 273 6 gusting 9 7.8
2019-Dec-04 16:50 291 6 gusting 9 7.8
2019-Dec-04 16:40 319 5 gusting 7 7.8
2019-Dec-04 16:35 304 3 gusting 7 7.8
2019-Dec-04 16:25 297 4 gusting 8 7.8
2019-Dec-04 16:20 320 4 gusting 9 7.8
2019-Dec-04 16:10 315 3 gusting 8 8.3
2019-Dec-04 16:00 316 3 gusting 9 8.3
2019-Dec-04 15:55 300 5 gusting 9 8.3
2019-Dec-04 15:50 294 3 gusting 6 8.3
2019-Dec-04 15:45 317 3 gusting 7 8.3
2019-Dec-04 15:40 308 2 gusting 7 8.3
2019-Dec-04 15:35 314 4 gusting 8 8.3
2019-Dec-04 15:25 286 4 gusting 8 8.3
2019-Dec-04 15:20 313 3 gusting 9 8.3
2019-Dec-04 15:15 298 5 gusting 9 8.3
2019-Dec-04 15:10 319 6 gusting 9 8.3
2019-Dec-04 15:05 313 3 gusting 9 8.3
2019-Dec-04 15:00 302 6 gusting 9 8.3
2019-Dec-04 14:55 322 6 gusting 9 8.3
2019-Dec-04 14:50 325 4 gusting 8 8.9
2019-Dec-04 14:40 309 5 gusting 9 8.9
2019-Dec-04 14:35 288 4 gusting 9 8.9
2019-Dec-04 14:30 340 4 gusting 9 8.9
2019-Dec-04 14:25 323 4 gusting 7 8.9
2019-Dec-04 14:20 325 2 gusting 8 8.9
2019-Dec-04 14:15 308 5 gusting 8 9.4
2019-Dec-04 14:10 321 3 gusting 7 9.4
2019-Dec-04 14:05 329 2 gusting 6 9.4
2019-Dec-04 14:00 342 3 gusting 7 9.4
2019-Dec-04 13:55 329 3 gusting 7 9.4
2019-Dec-04 13:50 336 3 gusting 8 9.4
2019-Dec-04 13:45 285 4 gusting 8 9.4
2019-Dec-04 13:40 311 3 gusting 8 9.4
2019-Dec-04 13:35 309 3 gusting 6 9.4
2019-Dec-04 13:30 360 2 gusting 6 9.4
2019-Dec-04 13:25 005 3 gusting 7 8.9
2019-Dec-04 13:17 319 6 gusting 8 8.9
2019-Dec-04 13:11 300 3 gusting 8 8.9
2019-Dec-04 13:06 313 4 gusting 8 8.9
2019-Dec-04 13:02 315 4 gusting 6 9.4
2019-Dec-04 12:56 294 1 gusting 8 8.9
2019-Dec-04 12:50 257 5 gusting 8 8.9
2019-Dec-04 12:47 355 2 gusting 7 8.9
2019-Dec-04 12:40 303 2 gusting 7 8.9
2019-Dec-04 12:36 314 3 gusting 7 8.9
2019-Dec-04 12:32 347 3 gusting 8 8.9
2019-Dec-04 12:25 325 4 gusting 8 8.9
2019-Dec-04 12:20 321 4 gusting 7 8.9
2019-Dec-04 12:16 326 3 gusting 7 8.9
2019-Dec-04 12:10 322 3 gusting 6 8.9
2019-Dec-04 12:05 296 2 gusting 6 8.9
2019-Dec-04 12:02 005 2 gusting 7 8.9
2019-Dec-04 11:56 301 2 gusting 7 8.9
2019-Dec-04 11:50 318 2 gusting 7 8.9
2019-Dec-04 11:46 321 4 gusting 8 8.3
2019-Dec-04 11:40 328 4 gusting 9 8.3
2019-Dec-04 11:35 329 4 gusting 9 8.9
2019-Dec-04 11:31 315 2 gusting 7 8.3
2019-Dec-04 11:25 307 5 gusting 7 8.3
2019-Dec-04 11:20 337 3 gusting 8 8.3
2019-Dec-04 11:16 337 4 gusting 8 8.3
2019-Dec-04 11:10 287 3 gusting 8 8.3
2019-Dec-04 11:05 315 5 gusting 8 8.3
2019-Dec-04 11:00 253 3 gusting 6 8.3
2019-Dec-04 10:55 313 2 gusting 7 8.3
2019-Dec-04 10:50 311 4 gusting 7 8.3
2019-Dec-04 10:46 311 1 gusting 6 8.3
2019-Dec-04 10:40 316 4 gusting 7 7.8
2019-Dec-04 10:35 281 4 gusting 7 7.8
2019-Dec-04 10:31 301 5 gusting 7 7.8
2019-Dec-04 10:25 296 2 gusting 7 7.8
2019-Dec-04 10:20 281 4 gusting 7 7.8
2019-Dec-04 10:16 265 6 gusting 7 7.2
2019-Dec-04 10:10 279 4 gusting 7 7.2
2019-Dec-04 10:05 254 3 gusting 9 7.2
2019-Dec-04 10:00 296 5 gusting 9 7.2
2019-Dec-04 09:55 283 5 gusting 7 7.2
2019-Dec-04 09:50 297 3 gusting 9 7.2
2019-Dec-04 09:46 293 6 gusting 9 6.7
2019-Dec-04 09:40 307 5 gusting 8 6.7
2019-Dec-04 09:35 314 4 gusting 9 6.7
2019-Dec-04 09:30 274 2 gusting 9 6.7
2019-Dec-04 09:25 277 4 gusting 6 6.7
2019-Dec-04 09:20 266 2 gusting 8 6.1
2019-Dec-04 09:15 282 6 gusting 8 6.1
2019-Dec-04 09:10 239 4 gusting 8 6.1
2019-Dec-04 09:05 285 6 gusting 8 6.1
2019-Dec-04 09:01 282 3 gusting 7 5.6
2019-Dec-04 08:55 287 4 gusting 8 5.6
2019-Dec-04 08:45 276 5 gusting 9 5.0
2019-Dec-04 08:40 290 6 gusting 8 5.0
2019-Dec-04 08:35 295 6 gusting 9 5.0
2019-Dec-04 08:25 251 4 gusting 8 4.4
2019-Dec-04 08:20 273 5 gusting 9 4.4
2019-Dec-04 08:10 284 3 gusting 8 4.4
2019-Dec-04 08:05 272 2 gusting 6 4.4
2019-Dec-04 07:55 261 3 gusting 7 3.9
2019-Dec-04 07:50 279 4 gusting 7 3.9
2019-Dec-04 07:45 294 3 gusting 6 3.9
2019-Dec-04 07:40 294 3 gusting 6 3.9
2019-Dec-04 07:35 299 2 gusting 6 3.9
2019-Dec-04 07:30 286 3 gusting 6 3.9
2019-Dec-04 07:25 286 2 gusting 6 3.9
2019-Dec-04 07:20 298 3 gusting 6 3.3
2019-Dec-04 07:15 296 2 gusting 6 3.3
2019-Dec-04 07:10 270 4 gusting 6 3.3
2019-Dec-04 07:05 281 2 gusting 6 3.3
2019-Dec-04 07:00 300 2 gusting 6 3.3
2019-Dec-04 06:55 252 3 gusting 6 3.3
2019-Dec-04 06:50 286 2 gusting 4 3.3
2019-Dec-04 06:45 281 2 gusting 5 3.3
2019-Dec-04 06:40 283 2 gusting 6 3.3
2019-Dec-04 06:35 283 2 gusting 6 3.3
2019-Dec-04 06:30 281 3 gusting 6 3.3
2019-Dec-04 06:25 269 3 gusting 6 3.3
2019-Dec-04 06:20 286 3 gusting 6 3.3
2019-Dec-04 06:15 259 2 gusting 6 3.3
2019-Dec-04 06:10 290 3 gusting 6 3.3
2019-Dec-04 06:05 281 4 gusting 6 2.8
2019-Dec-04 06:00 284 3 gusting 6 2.8
2019-Dec-04 05:55 294 3 gusting 6 2.8
2019-Dec-04 05:50 286 2 gusting 4 2.8
2019-Dec-04 05:41 271 2 gusting 6 2.8
2019-Dec-04 05:36 288 2 gusting 6 2.8
2019-Dec-04 05:32 279 2 gusting 6 2.8
2019-Dec-04 05:26 276 3 gusting 6 2.8
2019-Dec-04 05:21 268 2 gusting 6 2.8
2019-Dec-04 05:17 271 4 gusting 6 2.8
2019-Dec-04 05:10 302 4 gusting 6 2.8
2019-Dec-04 05:05 279 4 gusting 6 2.8
2019-Dec-04 05:02 274 3 gusting 6 2.8
2019-Dec-04 04:55 288 4 gusting 6 2.8
2019-Dec-04 04:50 293 2 gusting 6 2.8
2019-Dec-04 04:47 284 4 gusting 7 2.8
2019-Dec-04 04:40 279 4 gusting 7 2.8
2019-Dec-04 04:35 278 3 gusting 6 2.8
2019-Dec-04 04:31 283 4 gusting 6 2.8
2019-Dec-04 04:25 296 3 gusting 6 2.8
2019-Dec-04 04:20 285 3 gusting 6 2.8
2019-Dec-04 04:16 277 2 gusting 7 3.3
2019-Dec-04 04:10 278 5 gusting 7 3.3
2019-Dec-04 04:06 302 4 gusting 6 3.3
2019-Dec-04 04:02 267 4 gusting 6 3.3
2019-Dec-04 03:56 309 3 gusting 6 2.8
2019-Dec-04 03:50 280 3 gusting 6 2.8
2019-Dec-04 03:46 278 4 gusting 6 2.8
2019-Dec-04 03:41 300 3 gusting 6 2.8
2019-Dec-04 03:35 313 2 gusting 7 2.8
2019-Dec-04 03:32 281 5 gusting 7 3.3
2019-Dec-04 03:25 281 5 gusting 7 3.3
2019-Dec-04 03:20 296 4 gusting 6 3.3
2019-Dec-04 03:17 277 5 gusting 8 3.3
2019-Dec-04 03:10 282 5 gusting 8 2.8
2019-Dec-04 03:05 284 4 gusting 8 2.8
2019-Dec-04 03:02 292 6 gusting 8 2.8
2019-Dec-04 02:55 302 6 gusting 8 2.8
2019-Dec-04 02:50 288 4 gusting 7 2.8
2019-Dec-04 02:46 269 4 gusting 6 2.8
2019-Dec-04 02:40 288 3 gusting 6 3.3
2019-Dec-04 02:35 285 4 gusting 7 3.3
2019-Dec-04 02:32 296 4 gusting 7 3.3
2019-Dec-04 02:25 287 5 gusting 7 3.3
2019-Dec-04 02:20 264 2 gusting 7 3.3
2019-Dec-04 02:17 294 4 gusting 7 3.3
2019-Dec-04 02:10 294 3 gusting 8 3.3
2019-Dec-04 02:05 300 5 gusting 8 3.3
2019-Dec-04 02:02 271 5 gusting 7 3.3
2019-Dec-04 01:55 274 4 gusting 7 3.3
2019-Dec-04 01:50 288 3 gusting 7 3.3
2019-Dec-04 01:46 285 4 gusting 7 3.3
2019-Dec-04 01:40 271 3 gusting 7 3.3
2019-Dec-04 01:35 271 3 gusting 6 3.3
2019-Dec-04 01:31 279 5 gusting 6 3.3
2019-Dec-04 01:25 278 4 gusting 7 3.9
2019-Dec-04 01:20 286 4 gusting 7 3.9
2019-Dec-04 01:17 281 4 gusting 6 3.9
2019-Dec-04 01:10 279 2 gusting 6 3.9
2019-Dec-04 01:05 292 3 gusting 6 3.9
2019-Dec-04 01:01 302 3 gusting 4 3.9
2019-Dec-04 00:55 278 2 gusting 4 3.9
2019-Dec-04 00:50 282 3 gusting 4 3.9
2019-Dec-04 00:46 286 2 gusting 5 3.9
2019-Dec-04 00:40 265 2 gusting 4 3.9
2019-Dec-04 00:35 304 2 gusting 6 3.9
2019-Dec-04 00:31 284 4 gusting 6 3.3
2019-Dec-04 00:25 294 4 gusting 6 3.3
2019-Dec-04 00:20 298 3 gusting 6 3.3
2019-Dec-04 00:15 276 3 gusting 6 3.3
2019-Dec-04 00:10 303 3 gusting 6 3.3
2019-Dec-04 00:05 289 3 gusting 7 3.3
2019-Dec-04 00:01 289 3 gusting 7 3.3
2019-Dec-03 23:55 271 1 gusting 6 3.9
2019-Dec-03 23:50 293 1 gusting 6 3.9
2019-Dec-03 23:45 290 2 gusting 6 3.9
2019-Dec-03 23:40 288 3 gusting 6 3.9
2019-Dec-03 23:35 281 0 gusting 4 3.9
2019-Dec-03 23:31 288 2 gusting 4 3.9
2019-Dec-03 23:25 290 1 gusting 5 3.9
2019-Dec-03 23:20 275 2 gusting 5 3.9
2019-Dec-03 23:15 277 2 gusting 5 3.9
2019-Dec-03 23:10 262 2 gusting 3 3.9
2019-Dec-03 23:05 300 1 gusting 3 3.9
2019-Dec-03 23:00 293 0 gusting 3 3.9
2019-Dec-03 22:55 281 0 gusting 3 3.9
2019-Dec-03 22:50 270 0 gusting 4 3.9
2019-Dec-03 22:45 277 3 gusting 6 3.9
2019-Dec-03 22:40 275 3 gusting 6 3.9
2019-Dec-03 22:35 287 2 gusting 6 3.9
2019-Dec-03 22:30 282 2 gusting 5 3.9
2019-Dec-03 22:25 288 3 gusting 5 3.9
2019-Dec-03 22:20 277 1 gusting 5 3.9
2019-Dec-03 22:15 279 1 gusting 4 3.9
2019-Dec-03 22:10 277 2 gusting 6 3.9
2019-Dec-03 22:05 315 3 gusting 6 3.9
2019-Dec-03 22:01 241 1 gusting 5 3.9
2019-Dec-03 21:55 248 3 gusting 6 3.9
2019-Dec-03 21:50 242 1 gusting 4 3.9
2019-Dec-03 21:45 265 3 gusting 4 3.9
2019-Dec-03 21:40 265 3 gusting 5 3.9
2019-Dec-03 21:35 292 1 gusting 3 3.9
2019-Dec-03 21:30 246 1 gusting 3 3.9
2019-Dec-03 21:25 237 2 gusting 3 3.9
2019-Dec-03 21:20 236 1 gusting 2 4.4
2019-Dec-03 21:10 234 2 gusting 6 4.4
2019-Dec-03 21:05 245 4.4